sat.trackr.live / text

‹ back to catalog

STARLINK-5708

NORAD 55470 · 2023-015X

PAYLOAD ACTIVE UNKNOWN

§ Identity

Operator
Country
US
Launch date
2023-02-02
Launch site
AFETR
Launch vehicle
Mass (kg)
RCS (m²)

Purposes: comms

External: N2YO · Heavens-Above · Gunter

§ Orbital elements

Epoch: 2026-05-25T00:16:53.960160Z

Period
94.27 min
Inclination
43.0009°
Eccentricity
0.0000887
Mean motion
15.27577957 rev/d
Perigee alt
482.4 km
Apogee alt
483.7 km
Semi-major
6,861.2 km
B*
6.8349e-6
RAAN
257.7635°
Arg perigee
280.0502°
Mean anomaly
80.0249°
Rev number
18,239

§ Raw data

STARLINK-57081 55470U 23015X   26145.01173565 -.00000074  00000+0  68349-5 0  99942 55470  43.0009 257.7635 0000887 280.0502  80.0249 15.27577957182395

JSON: /api/v1/satellites/55470 · /tle

For live sub-satellite position, see the globe view (requires WebGL).

§ Visibility from observer

Set your observer location to see the next 7 days of passes ≥ 10°. The values pass through the URL so the page stays shareable.

No JS? Fill the form by hand. The geolocation button needs JavaScript.